Tracking 19854 objects as of 23-Sep-2019
HD Live streaming from Space Station
objects crossing your sky now

FENGYUN 1C DEB

Track FENGYUN 1C DEB now!
10-day predictions


NORAD ID: 30661
Int'l Code: 1999-025APT
Perigee: 728.8 km
Apogee: 940.9 km
Inclination: 99.5 °
Period: 101.5 minutes
Semi major axis: 7205 km
RCS: 0.0103 m2 (small)
Launch date: May 10, 1999
Source: People's Republic of China (PRC)
Launch site: Taiyaun Space Center, China (TSC)

Note: This is SATELLITE DEBRIS
aabbcc
Your satellite tracking list
Your tracking list is empty




NASA's NSSDC Master Catalog

Two Line Element Set (TLE):
1 30661U 99025APT 19264.45565547  .00000014  00000-0  28014-4 0  9998
2 30661  99.4899 256.3142 0147223 331.8118  27.5143 14.19305180656510
Source of the keplerian elements: AFSPC